Location: Edmondson
(35.1065°N, 90.3104°W)
Time: 00:10:58
(UTC+00:00)

ISS - Visible Passes

Search period start: 13 October 2024 00:00
Search period end: 23 October 2024 00:00
Orbit: 411 x 424 km, 51.6° (Epoch: 12 October)

Date Brightness Start Highest point End Pass type
(mag) Time Alt. Az. Time Alt. Az. Time Alt. Az.
13 Oct -0.2 11:20:36 10° SE 11:21:06 10° SE 11:21:35 10° ESE visible
15 Oct -2.1 11:18:01 10° SSW 11:21:03 34° SE 11:24:06 10° ENE visible
16 Oct -1.1 10:30:32 10° S 10:32:53 18° SE 10:35:15 10° E visible
17 Oct -3.8 11:18:05 12° WSW 11:21:01 65° NW 11:24:20 10° NE visible
18 Oct -3.5 10:32:29 62° SSE 10:32:39 63° SE 10:35:56 10° NE visible
19 Oct -0.5 09:46:39 14° ENE 09:46:39 14° ENE 09:47:16 10° ENE visible
19 Oct -2.3 11:19:35 17° WNW 11:21:02 23° NNW 11:23:45 10° NNE visible
20 Oct -2.3 10:33:32 28° N 10:33:32 28° N 10:35:33 10° NNE visible
21 Oct -1.4 11:20:13 10° NW 11:21:04 11° NNW 11:22:10 10° N visible
22 Oct -1.2 10:33:51 12° N 10:33:51 12° N 10:34:25 10° NNE visible
